OPS 9324 (IDSCS 11)

导读

OPS 9324又名IDSCS 11,是美国于1967年1月18日8时发射的一颗国防通信卫星,隶属于初期国防卫星通信系统(IDSCS),旨在为美国军方提供远程战略通信支持。作为该系列的第11颗卫星,它承载了冷战时期美军全球指挥控制的通信需求,采用地球静止轨道部署,是美国早期军事卫星通信网络的重要组成部分。卫星入轨后,承担跨洋保密话音和数据转发任务,验证了天基军事通信的可靠性,为后续DSCS系列卫星发展奠定了技术基础。

基本信息
目录编号:
2651
目录名称:
OPS 9324 (IDSCS 11)
国际标识:
1967-003D
轨道中心:
EARTH
卫星名称:
OPS 9324 (IDSCS 11)
卫星全名:
--
卫星状态:
在轨 (已飞行21727 天)
发射日期:
1967-01-18 UTC
国别 :
美国 (US)
星等 :
--
轨道信息
数据来源 国际轨道数据
星历时间: 2026-07-13T20:14:57+0800
17小时前
查看轨道信息
半长轴: 40102.316km
偏心率: 0.0034681
轨道倾角: 8.313°
近地点辐角 98.695°
升交点赤经 44.865°
平近点角 213.591°
近地点: 33585.1km
远地点: 33863.258km
周期: 1332.030分钟
每日圈数: 1.081057
详细信息
使用方式:
暂无
2D轨道图
3D轨道图
轨道高度分析图
轨道倾角分析图
轨道综合分析图
查看轨道综合分析图